Home   Weather   Hiroshima   Past weeks

Flag for Japan Past Weather in Hiroshima, Japan — Yesterday and Last 2 Weeks

Now
72 °F

Mostly cloudy.


Feels Like: 72 °F
Forecast: 64 / 75 °F
Wind: 9 mph from Northeast

Location: Iwakuni Marine Corps Air Station

Current Time: Sep 29, 2016 at 5:28:52 PM

Latest Report: Sep 29, 2016 at 3:55 PM


Visibility: N/A

Pressure: 29.97 "Hg

Humidity: 81%

Dew Point: 66 °F

Location of HiroshimaLocation

Past Weather in Hiroshima — Graph

°F

Hiroshima Temperature Yesterday

Maximum temperature yesterday: 81 °F (at 1:55 PM)
Minimum temperature yesterday: 75 °F (at 11:55 PM)
Average temperature yesterday: 78 °F

High & Low Weather Summary for the Past Weeks

 TemperatureHumidityPressure
High85 °F (Sep 27, 1:55 PM)91% (Sep 19, 2:55 PM)30.07 "Hg (Sep 19, 2:55 PM)
Low68 °F (Sep 20, 12:55 AM)50% (Sep 21, 1:55 PM)29.59 "Hg (Sep 20, 9:55 AM)
Average76 °F75%29.93 "Hg
* Reported Sep 14 3:55 PM — Sep 29 3:55 PM, Hiroshima, Weather by CustomWeather, © 2016

Note: Actual official high and low records may vary slightly from our data, if they occured in-between our weather recording intervals... More about our weather records

Advertising

Hiroshima Weather History for the Previous 24 Hours

Scroll right to see more
 ConditionsComfort  
Time TempWeatherWind HumidityBarometerVisibility
3:55 PM
Thu, Sep 29
72 °FMostly cloudy.9 mph81%29.97 "HgN/A
2:55 PM71 °FSprinkles. Fog.20 mph81%29.96 "Hg4 mi
1:55 PM71 °FSprinkles. Mostly cloudy.18 mph81%29.94 "Hg4 mi
12:55 PM73 °FSprinkles. Mostly cloudy.20 mph81%29.93 "Hg5 mi
11:55 AM73 °FSprinkles. Fog.23 mph84%29.93 "Hg6 mi
10:55 AM74 °FSprinkles. Fog.15 mph82%29.93 "Hg4 mi
9:55 AM77 °FSprinkles. Mostly cloudy.5 mph79%29.93 "HgN/A
8:55 AM77 °FSprinkles. Mostly cloudy.No wind85%29.91 "HgN/A
7:55 AM77 °FSprinkles. Mostly cloudy.6 mph83%29.90 "HgN/A
6:55 AM76 °FMostly cloudy.3 mph85%29.89 "HgN/A
5:55 AM76 °FMostly cloudy.No wind88%29.88 "HgN/A
4:55 AM77 °FSprinkles. Mostly cloudy.No wind82%29.87 "HgN/A
3:55 AM77 °FSprinkles. Mostly cloudy.3 mph85%29.86 "HgN/A
2:55 AM76 °FSprinkles. Mostly cloudy.3 mph88%29.87 "HgN/A
1:55 AM76 °FSprinkles. Mostly cloudy.3 mph88%29.88 "HgN/A
12:55 AM77 °FSprinkles. Mostly cloudy.7 mph85%29.88 "HgN/A
11:55 PM
Wed, Sep 28
75 °FSprinkles. Overcast.6 mph88%29.90 "HgN/A
10:55 PM76 °FRain showers. Fog.6 mph85%29.91 "Hg5 mi
9:55 PM77 °FSprinkles. Mostly cloudy.3 mph83%29.92 "HgN/A
8:55 PM77 °FSprinkles. Mostly cloudy.No wind88%29.91 "HgN/A
7:55 PM77 °FSprinkles. Mostly cloudy.6 mph88%29.91 "HgN/A
6:55 PM78 °FSprinkles. Mostly cloudy.5 mph82%29.90 "HgN/A
5:55 PM78 °FSprinkles. Mostly cloudy.No wind84%29.90 "HgN/A
Weather by CustomWeather, © 2016

See weather overviewHow to use our weather pages